Nadi, Fiji

3:27 PM +12 on April 30, 2017 (GMT +1200)
Nadi International

Weather History for NFFN - May, 2013

Change the Weather History Date:

Wednesday, May 22, 2013

  Actual Average Record
Temperature  
Mean Temperature 79 °F -  
Max Temperature 87 °F 82 °F 87 °F (2001)
Min Temperature 71 °F 67 °F 62 °F (2014)
Cooling Degree Days 14    
Growing Degree Days 29 (Base 50)    
Moisture  
Dew Point 73 °F    
Average Humidity 85    
Maximum Humidity 100    
Minimum Humidity 60    
Precipitation  
Precipitation 0.08 in 0.09 in - ()
Sea Level Pressure  
Sea Level Pressure 29.90 in    
Wind  
Wind Speed 5 mph ()    
Max Wind Speed 12 mph    
Max Gust Speed -    
Visibility 6.8 miles    
Events Rain , Thunderstorm    
Averages and records for this station are not official NWS values.
T = Trace of Precipitation, MM = Missing Value Source: Averaged Metar Reports

Daily Weather History Graph

Daily Weather History Graph

Search for Another Location

Airport or City:

Trip Planner

Search our weather history database for the weather conditions in past years. The results will help you decide how hot, cold, wet, or windy it might be!

Date:

Astronomy

May. 22, 2013 Rise Set
Actual Time 6:30 AM +12 5:43 PM +12
Civil Twilight 6:07 AM +12 6:06 PM +12
Nautical Twilight 5:40 AM +12 6:32 PM +12
Astronomical Twilight 5:14 AM +12 6:59 PM +12
Moon 3:06 PM +12 (5/22) 3:03 AM +12 (5/22)
Length of Visible Light 11h 59m
Length of Day
11h 12m
Waxing Gibbous, 86% of the Moon is Illuminated
May 22
Waxing Gibbous
May 25
Full
Jun 1
Last Quarter
Jun 9
New
Jun 17
First Quarter

Hourly Weather History & Observations

Time (+12) Temp. Heat Index Dew Point Humidity Pressure Visibility Wind Dir Wind Speed Gust Speed Precip Events Conditions
12:00 AM 72 °F - 71 °F 94% 29.99 in 6 mi ESE 8.1 mph - - Rain , Thunderstorm Thunderstorms and Rain
12:00 AM 71.6 °F - 71.6 °F 100% 29.98 in 5.0 mi ESE 8.1 mph - N/A Rain , Thunderstorm Light Thunderstorms and Rain
12:30 AM 71.6 °F - 71.6 °F 100% 29.95 in 6.2 mi ENE 11.5 mph - N/A Rain , Thunderstorm Light Thunderstorms and Rain
1:00 AM 71.6 °F - 69.8 °F 94% 29.89 in 6.2 mi ENE 10.4 mph - N/A Rain Light Rain Showers
2:00 AM 71.6 °F - 69.8 °F 94% 29.92 in 6.2 mi Calm Calm - N/A   Mostly Cloudy
3:00 AM 75 °F - 70 °F 79% 29.91 in 12 mi NNE 11.5 mph - -   Partly Cloudy
3:00 AM 71.6 °F - 69.8 °F 94% 29.92 in 6.2 mi NNE 11.5 mph - N/A   Mostly Cloudy
4:00 AM 73.4 °F - 71.6 °F 94% 29.89 in 6.2 mi South 3.5 mph - N/A   Scattered Clouds
5:00 AM 73.4 °F - 71.6 °F 94% 29.86 in 6.2 mi Calm Calm - N/A   Mostly Cloudy
6:00 AM 72 °F - 71 °F 94% 29.87 in 12 mi Calm Calm - -   Partly Cloudy
6:00 AM 71.6 °F - 69.8 °F 94% 29.86 in 6.2 mi Calm Calm - N/A   Scattered Clouds
7:00 AM 71.6 °F - 69.8 °F 94% 29.89 in 6.2 mi Calm Calm - N/A   Mostly Cloudy
8:00 AM 73.4 °F - 71.6 °F 94% 29.92 in 6.2 mi Calm Calm - N/A   Mostly Cloudy
9:00 AM 76 °F - 73 °F 88% 29.95 in 31 mi Calm Calm - -   Partly Cloudy
9:00 AM 75.2 °F - 73.4 °F 94% 29.95 in 6.2 mi Calm Calm - N/A   Mostly Cloudy
10:00 AM 84.2 °F 90.9 °F 73.4 °F 70% 29.95 in 6.2 mi NNE 4.6 mph - N/A   Mostly Cloudy
11:00 AM 86.0 °F 95.1 °F 75.2 °F 70% 29.92 in 6.2 mi NE 5.8 mph - N/A   Mostly Cloudy
12:00 PM 87 °F - 75 °F 60% 29.91 in 31 mi NNW 5.8 mph - -   Partly Cloudy
12:00 PM 87.8 °F 97.6 °F 75.2 °F 66% 29.89 in 6.2 mi NNW 5.8 mph - N/A   Mostly Cloudy
1:00 PM 86.0 °F 93.4 °F 73.4 °F 66% 29.86 in 6.2 mi North 6.9 mph - N/A   Mostly Cloudy
2:00 PM 87.8 °F 97.6 °F 75.2 °F 66% 29.86 in 6.2 mi North 8.1 mph - N/A   Mostly Cloudy
3:00 PM 86 °F - 75 °F 62% 29.84 in 31 mi NNW 6.9 mph - -   Partly Cloudy
3:00 PM 86.0 °F 95.1 °F 75.2 °F 70% 29.83 in 6.2 mi NNW 6.9 mph - N/A   Mostly Cloudy
4:00 PM 84.2 °F 92.3 °F 75.2 °F 74% 29.83 in 6.2 mi WNW 8.1 mph - N/A   Mostly Cloudy
5:00 PM 82.4 °F 90.9 °F 77.0 °F 84% 29.83 in 6.2 mi WNW 6.9 mph - N/A   Mostly Cloudy
6:00 PM 81 °F - 75 °F 78% 29.87 in 31 mi Calm Calm - -   Partly Cloudy
6:00 PM 80.6 °F 86.2 °F 75.2 °F 84% 29.86 in 6.2 mi Calm Calm - N/A   Mostly Cloudy
7:00 PM 78.8 °F - 77.0 °F 94% 29.86 in 6.2 mi Calm Calm - N/A   Mostly Cloudy
8:00 PM 78.8 °F - 77.0 °F 94% 29.89 in 6.2 mi East 4.6 mph - N/A   Mostly Cloudy
9:00 PM 77 °F - 76 °F 95% 29.93 in 12 mi Calm Calm - -   Partly Cloudy
9:00 PM 77.0 °F - 75.2 °F 94% 29.92 in 6.2 mi Calm Calm - N/A   Mostly Cloudy
10:00 PM 77.0 °F - 75.2 °F 94% 29.92 in 6.2 mi Calm Calm - N/A   Mostly Cloudy
11:00 PM 77.0 °F - 73.4 °F 89% 29.92 in 6.2 mi Calm Calm - N/A   Mostly Cloudy